Flag for Austria Weather past 2 weeks in Linz, Upper Austria, Austria

Now
41 °F

Clear.


Feels Like: 37 °F
Forecast: 38 / 62 °F
Wind: 6 mph from Southwest

Location: Linz / Hoersching-Flughafen

Current Time: Apr 21, 2015 at 7:16:57 AM

Latest Report: Apr 21, 2015 at 6:50 AM


Visibility: 10 mi

Pressure: 30.30 "Hg

Humidity: 81%

Dew point: 36 °F

Location of LinzLocation

Historic Weather in Linz — Graph

°F

Linz temperature yesterday

Maximum temperature yesterday: 61 °F (at 2:50 PM)
Minimum temperature yesterday: 36 °F (at 4:50 AM)
Average temperature yesterday: 49 °F

Past Weeks' High & Low Weather Summary

 TemperatureHumidityPressure
High73 °F (Apr 15, 4:50 PM)94% (Apr 17, 6:20 PM)30.60 "Hg (Apr 17, 6:20 PM)
Low32 °F (Apr 7, 5:50 AM)27% (Apr 10, 5:50 PM)29.83 "Hg (Apr 17, 3:50 PM)
Average51 °F62%30.23 "Hg
* Reported Apr 6 5:20 AM — Apr 21 5:50 AM, Linz, Weather by CustomWeather, © 2015

Note: Actual official high and low records may vary slightly from our data, if they occured in-between our weather recording intervals... More about our weather records

Advertising

Linz weather history for previous 24 hours

 ConditionsComfort  
Time TempWeatherWind HumidityBarometerVisibility
5:50 AM
Tue, Apr 21
41 °FClear.7 mph81%30.30 "Hg10 mi
5:20 AM41 °FClear.8 mph81%30.27 "Hg10 mi
4:50 AM39 °FClear.5 mph87%30.27 "Hg10 mi
4:20 AM41 °FClear.6 mph81%30.27 "Hg10 mi
3:50 AM41 °FClear.6 mph81%30.27 "Hg10 mi
3:20 AM43 °FQuite cool.6 mph76%30.27 "HgN/A
2:50 AM43 °FQuite cool.6 mph76%30.27 "HgN/A
2:20 AM45 °FQuite cool.6 mph76%30.24 "HgN/A
1:50 AM46 °FCool.7 mph71%30.27 "HgN/A
1:20 AM45 °FQuite cool.6 mph76%30.24 "HgN/A
12:50 AM46 °FCool.8 mph71%30.24 "HgN/A
12:20 AM46 °FCool.7 mph71%30.24 "HgN/A
11:50 PM
Mon, Apr 20
46 °FCool.6 mph71%30.24 "HgN/A
11:20 PM48 °FCool.6 mph62%30.24 "HgN/A
10:50 PM52 °FClear.5 mph54%30.24 "Hg10 mi
10:20 PM52 °FPassing clouds.3 mph54%30.21 "HgN/A
9:50 PM54 °FClear.6 mph51%30.21 "Hg10 mi
9:20 PM57 °FPassing clouds.6 mph41%30.21 "HgN/A
8:50 PM55 °FPassing clouds.12 mph51%30.18 "HgN/A
8:20 PM55 °FPassing clouds.7 mph47%30.18 "HgN/A
7:50 PM57 °FPassing clouds.12 mph48%30.15 "HgN/A
7:20 PM59 °FPassing clouds.13 mph45%30.15 "HgN/A
6:50 PM59 °FPassing clouds.14 mph45%30.15 "HgN/A
6:20 PM61 °FPassing clouds.17 mph42%30.12 "HgN/A
5:50 PM61 °FPassing clouds.20 mph42%30.15 "HgN/A
5:20 PM61 °FPassing clouds.18 mph42%30.15 "HgN/A
4:50 PM61 °FScattered clouds.20 mph42%30.15 "HgN/A
4:20 PM61 °FScattered clouds.18 mph42%30.15 "HgN/A
3:50 PM61 °FPassing clouds.18 mph42%30.15 "HgN/A
3:20 PM61 °FPassing clouds.16 mph42%30.15 "HgN/A
2:50 PM61 °FPassing clouds.15 mph45%30.18 "HgN/A
2:20 PM59 °FPassing clouds.15 mph45%30.18 "HgN/A
1:50 PM57 °FPassing clouds.12 mph44%30.18 "HgN/A
1:20 PM57 °FPassing clouds.10 mph51%30.18 "HgN/A
12:50 PM57 °FPassing clouds.8 mph44%30.18 "HgN/A
12:20 PM55 °FPassing clouds.9 mph47%30.21 "HgN/A
11:50 AM55 °FPassing clouds.7 mph44%30.21 "HgN/A
11:20 AM54 °FPassing clouds.8 mph51%30.21 "HgN/A
10:50 AM54 °FPassing clouds.7 mph51%30.21 "HgN/A
10:20 AM50 °FScattered clouds.6 mph62%30.21 "HgN/A
9:50 AM48 °FPassing clouds.3 mph66%30.21 "HgN/A
9:20 AM46 °FPassing clouds.5 mph71%30.21 "HgN/A
8:50 AM45 °FSunny.5 mph71%30.21 "Hg10 mi
8:20 AM41 °FSunny.8 mph81%30.21 "Hg10 mi
7:50 AM39 °FSunny.6 mph87%30.21 "Hg10 mi
7:20 AM37 °FSunny.7 mph87%30.21 "Hg10 mi
Weather by CustomWeather, © 2015

See weather overviewHow to use our weather pages